| time (UTC) | temp F | wind direction | speed MPH | gust MPH | rain 1hr in | rain 24hr in | rain mn in | humidity % | barometer mb |
| 20260510080840 | 72 | 38 | 0.0 | 3.0 | 0.00 | 0.00 | 0.00 | 92 | 1013.7 |
| 20260510075840 | 72 | 38 | 0.0 | 1.0 | 0.00 | 0.00 | 0.00 | 92 | 1013.9 |
| 20260510074841 | 73 | 38 | 0.0 | 0.0 | 0.00 | 0.00 | 0.00 | 91 | 1014.1 |
| 20260510073842 | 73 | 38 | 0.0 | 0.0 | 0.00 | 0.00 | 0.00 | 91 | 1014.0 |
| 20260510072841 | 73 | 38 | 0.0 | 0.0 | 0.00 | 0.00 | 0.00 | 91 | 1014.0 |
| 20260510071838 | 73 | 38 | 0.0 | 2.0 | 0.00 | 0.00 | 0.00 | 90 | 1014.0 |
| 20260510070835 | 74 | 38 | 0.0 | 0.0 | 0.00 | 0.00 | 0.00 | 90 | 1014.0 |
| 20260510065838 | 74 | 38 | 0.0 | 1.0 | 0.00 | 0.00 | 0.00 | 90 | 1014.0 |
| 20260510064834 | 74 | 38 | 0.0 | 1.0 | 0.00 | 0.00 | 0.00 | 90 | 1014.0 |
| 20260510063835 | 74 | 38 | 0.0 | 1.0 | 0.00 | 0.00 | 0.00 | 89 | 1014.0 |
| 20260510062827 | 74 | 38 | 0.0 | 1.0 | 0.00 | 0.00 | 0.00 | 89 | 1014.1 |
| 20260510061826 | 74 | 38 | 0.0 | 0.0 | 0.00 | 0.00 | 0.00 | 89 | 1014.2 |
| 20260510060827 | 74 | 38 | 0.0 | 2.0 | 0.00 | 0.00 | 0.00 | 89 | 1014.4 |
| 20260510055826 | 74 | 38 | 0.0 | 0.0 | 0.00 | 0.00 | 0.00 | 90 | 1014.5 |
| 20260510054826 | 74 | 38 | 0.0 | 0.0 | 0.00 | 0.00 | 0.00 | 89 | 1014.7 |
| 20260510053828 | 74 | 38 | 0.0 | 0.0 | 0.00 | 0.00 | 0.00 | 89 | 1014.7 |
| 20260510052826 | 74 | 38 | 0.0 | 0.0 | 0.00 | 0.00 | 0.00 | 89 | 1014.7 |
| 20260510051815 | 75 | 38 | 0.0 | 1.0 | 0.00 | 0.00 | 0.00 | 88 | 1014.6 |
| 20260510050814 | 75 | 38 | 0.0 | 1.0 | 0.00 | 0.00 | 0.00 | 87 | 1014.8 |
| 20260510045816 | 75 | 38 | 0.0 | 0.0 | 0.00 | 0.00 | 0.00 | 88 | 1014.9 |
| 20260510044814 | 75 | 38 | 0.0 | 0.0 | 0.00 | 0.00 | 0.00 | 87 | 1015.0 |
| 20260510043813 | 76 | 38 | 0.0 | 0.0 | 0.00 | 0.00 | 0.00 | 87 | 1014.9 |
| 20260510042812 | 76 | 38 | 0.0 | 1.0 | 0.00 | 0.00 | 0.00 | 85 | 1015.1 |
| 20260510041811 | 77 | 38 | 2.0 | 4.0 | 0.00 | 0.00 | 0.00 | 85 | 1015.0 |
| 20260510040812 | 77 | 27 | 1.0 | 3.0 | 0.00 | 0.00 | 0.00 | 84 | 1015.1 |
| 20260510035812 | 76 | 27 | 0.0 | 1.0 | 0.00 | 0.00 | 0.00 | 86 | 1015.1 |
| 20260510034815 | 76 | 27 | 0.0 | 1.0 | 0.00 | 0.00 | 0.00 | 85 | 1015.2 |
| 20260510033804 | 76 | 27 | 0.0 | 0.0 | 0.00 | 0.00 | 0.00 | 85 | 1015.0 |
| 20260510032802 | 77 | 27 | 0.0 | 0.0 | 0.00 | 0.00 | 0.00 | 83 | 1015.1 |
| 20260510031805 | 78 | 27 | 1.0 | 2.0 | 0.00 | 0.00 | 0.00 | 83 | 1015.0 |
| 20260510030802 | 78 | 27 | 1.0 | 3.0 | 0.00 | 0.00 | 0.00 | 82 | 1015.0 |
| 20260510025803 | 78 | 27 | 2.0 | 3.0 | 0.00 | 0.00 | 0.00 | 81 | 1015.0 |
| 20260510024753 | 79 | 23 | 2.0 | 3.0 | 0.00 | 0.00 | 0.00 | 81 | 1014.9 |
| 20260510023752 | 79 | 23 | 1.0 | 3.0 | 0.00 | 0.00 | 0.00 | 80 | 1014.8 |
| 20260510022753 | 79 | 23 | 1.0 | 4.0 | 0.00 | 0.00 | 0.00 | 80 | 1014.7 |
| 20260510021754 | 80 | 23 | 3.0 | 6.0 | 0.00 | 0.00 | 0.00 | 79 | 1014.6 |
| 20260510020751 | 80 | 15 | 3.0 | 5.0 | 0.00 | 0.00 | 0.00 | 78 | 1014.6 |
| 20260510015751 | 80 | 10 | 4.0 | 8.0 | 0.00 | 0.00 | 0.00 | 77 | 1014.5 |
| 20260510015229 | 81 | 22 | 4.0 | 10.0 | 0.00 | 0.00 | 0.00 | 76 | 1014.4 |
| 20260510013749 | 81 | 15 | 6.0 | 12.0 | 0.00 | 0.00 | 0.00 | 76 | 1014.2 |
| 20260510012752 | 82 | 337 | 5.0 | 11.0 | 0.00 | 0.00 | 0.00 | 75 | 1014.1 |
| 20260510011734 | 83 | 23 | 5.0 | 10.0 | 0.00 | 0.00 | 0.00 | 74 | 1013.8 |
| 20260510011218 | 83 | 20 | 7.0 | 15.0 | 0.00 | 0.00 | 0.00 | 73 | 1013.6 |
| 20260510010214 | 83 | 23 | 7.0 | 12.0 | 0.00 | 0.00 | 0.00 | 72 | 1013.3 |
| 20260510004736 | 84 | 334 | 7.0 | 15.0 | 0.00 | 0.00 | 0.00 | 69 | 1013.1 |
| 20260510003730 | 85 | 37 | 5.0 | 14.0 | 0.00 | 0.00 | 0.00 | 65 | 1012.9 |
| 20260510003211 | 86 | 321 | 2.0 | 4.0 | 0.00 | 0.00 | 0.00 | 60 | 1012.7 |
| 20260510001729 | 86 | 305 | 1.0 | 4.0 | 0.00 | 0.00 | 0.00 | 60 | 1012.5 |
| 20260510000728 | 87 | 308 | 3.0 | 9.0 | 0.00 | 0.00 | 0.00 | 58 | 1012.2 |
| 20260509235729 | 87 | 309 | 4.0 | 10.0 | 0.00 | 0.00 | 0.00 | 57 | 1012.1 |
| 20260509234729 | 88 | 300 | 4.0 | 8.0 | 0.00 | 0.00 | 0.00 | 56 | 1011.9 |
| 20260509233729 | 89 | 309 | 5.0 | 11.0 | 0.00 | 0.00 | 0.00 | 55 | 1011.8 |
| 20260509232725 | 90 | 310 | 5.0 | 13.0 | 0.00 | 0.00 | 0.00 | 53 | 1011.6 |
| 20260509231725 | 91 | 274 | 5.0 | 12.0 | 0.00 | 0.00 | 0.00 | 52 | 1011.5 |
| 20260509230709 | 92 | 282 | 6.0 | 14.0 | 0.00 | 0.00 | 0.00 | 50 | 1011.4 |
| 20260509225710 | 92 | 275 | 5.0 | 11.0 | 0.00 | 0.00 | 0.00 | 51 | 1011.3 |
| 20260509224711 | 92 | 281 | 5.0 | 11.0 | 0.00 | 0.00 | 0.00 | 51 | 1011.1 |
| 20260509223710 | 93 | 235 | 5.0 | 11.0 | 0.00 | 0.00 | 0.00 | 51 | 1011.0 |
| 20260509222709 | 93 | 294 | 5.0 | 11.0 | 0.00 | 0.00 | 0.00 | 51 | 1011.0 |
| 20260509221713 | 93 | 273 | 4.0 | 9.0 | 0.00 | 0.00 | 0.00 | 52 | 1011.0 |
| 20260509220657 | 93 | 274 | 4.0 | 9.0 | 0.00 | 0.00 | 0.00 | 52 | 1011.1 |
| 20260509215657 | 92 | 276 | 4.0 | 8.0 | 0.00 | 0.00 | 0.00 | 54 | 1011.1 |
| 20260509215133 | 92 | 297 | 4.0 | 10.0 | 0.00 | 0.00 | 0.00 | 54 | 1010.9 |
| 20260509213658 | 90 | 322 | 4.0 | 9.0 | 0.00 | 0.00 | 0.00 | 62 | 1010.9 |
| 20260509212657 | 88 | 336 | 6.0 | 14.0 | 0.00 | 0.00 | 0.00 | 64 | 1010.8 |
| 20260509211650 | 87 | 287 | 7.0 | 19.0 | 0.00 | 0.00 | 0.00 | 63 | 1010.9 |
| 20260509210649 | 89 | 300 | 10.0 | 22.0 | 0.00 | 0.00 | 0.00 | 58 | 1010.9 |
| 20260509205647 | 93 | 241 | 7.0 | 13.0 | 0.00 | 0.00 | 0.00 | 50 | 1010.5 |
| 20260509204647 | 94 | 262 | 7.0 | 15.0 | 0.00 | 0.00 | 0.00 | 48 | 1010.4 |
| 20260509203647 | 96 | 223 | 5.0 | 13.0 | 0.00 | 0.00 | 0.00 | 47 | 1010.4 |
| 20260509203136 | 96 | 250 | 6.0 | 17.0 | 0.00 | 0.00 | 0.00 | 45 | 1010.6 |
| 20260509201647 | 96 | 229 | 6.0 | 16.0 | 0.00 | 0.00 | 0.00 | 47 | 1010.7 |
| 20260509200648 | 96 | 271 | 7.0 | 13.0 | 0.00 | 0.00 | 0.00 | 46 | 1010.7 |
| 20260509195649 | 95 | 194 | 5.0 | 15.0 | 0.00 | 0.00 | 0.00 | 48 | 1010.8 |
| 20260509194642 | 95 | 284 | 6.0 | 14.0 | 0.00 | 0.00 | 0.00 | 47 | 1010.9 |
| 20260509193641 | 96 | 240 | 7.0 | 12.0 | 0.00 | 0.00 | 0.00 | 45 | 1011.1 |
| 20260509192642 | 96 | 259 | 5.0 | 16.0 | 0.00 | 0.00 | 0.00 | 45 | 1011.3 |
| 20260509191642 | 96 | 276 | 6.0 | 12.0 | 0.00 | 0.00 | 0.00 | 47 | 1011.3 |
| 20260509190640 | 97 | 269 | 6.0 | 16.0 | 0.00 | 0.00 | 0.00 | 45 | 1011.5 |
| 20260509190115 | 95 | 274 | 5.0 | 12.0 | 0.00 | 0.00 | 0.00 | 48 | 1011.5 |
| 20260509184630 | 94 | 252 | 5.0 | 12.0 | 0.00 | 0.00 | 0.00 | 49 | 1011.7 |
| 20260509183631 | 95 | 208 | 5.0 | 12.0 | 0.00 | 0.00 | 0.00 | 47 | 1011.7 |
| 20260509182629 | 96 | 225 | 8.0 | 17.0 | 0.00 | 0.00 | 0.00 | 47 | 1011.9 |
| 20260509182117 | 95 | 214 | 5.0 | 11.0 | 0.00 | 0.00 | 0.00 | 45 | 1011.9 |
| 20260509180629 | 96 | 214 | 6.0 | 13.0 | 0.00 | 0.00 | 0.00 | 45 | 1012.0 |
| 20260509175628 | 97 | 250 | 6.0 | 15.0 | 0.00 | 0.00 | 0.00 | 44 | 1012.0 |
| 20260509174614 | 96 | 264 | 6.0 | 15.0 | 0.00 | 0.00 | 0.00 | 45 | 1012.1 |
| 20260509173615 | 96 | 152 | 6.0 | 18.0 | 0.00 | 0.00 | 0.00 | 47 | 1012.2 |
| 20260509172615 | 95 | 270 | 7.0 | 15.0 | 0.00 | 0.00 | 0.00 | 46 | 1012.3 |
| 20260509172058 | 96 | 225 | 8.0 | 16.0 | 0.00 | 0.00 | 0.00 | 45 | 1012.4 |
| 20260509170612 | 95 | 179 | 7.0 | 13.0 | 0.00 | 0.00 | 0.00 | 46 | 1012.4 |
| 20260509165613 | 95 | 153 | 6.0 | 15.0 | 0.00 | 0.00 | 0.00 | 50 | 1012.5 |
| 20260509164614 | 95 | 260 | 7.0 | 18.0 | 0.00 | 0.00 | 0.00 | 47 | 1012.8 |
| 20260509163614 | 94 | 273 | 7.0 | 14.0 | 0.00 | 0.00 | 0.00 | 48 | 1012.7 |
| 20260509162609 | 94 | 269 | 6.0 | 12.0 | 0.00 | 0.00 | 0.00 | 49 | 1012.8 |
| 20260509161609 | 93 | 237 | 5.0 | 12.0 | 0.00 | 0.00 | 0.00 | 52 | 1012.8 |
| 20260509160609 | 92 | 146 | 6.0 | 15.0 | 0.00 | 0.00 | 0.00 | 54 | 1012.9 |
| 20260509160053 | 92 | 226 | 7.0 | 14.0 | 0.00 | 0.00 | 0.00 | 51 | 1013.0 |
| 20260509154608 | 92 | 212 | 6.0 | 13.0 | 0.00 | 0.00 | 0.00 | 49 | 1013.2 |
| 20260509153610 | 92 | 230 | 6.0 | 12.0 | 0.00 | 0.00 | 0.00 | 47 | 1013.3 |
| 20260509152608 | 91 | 233 | 6.0 | 12.0 | 0.00 | 0.00 | 0.00 | 51 | 1013.4 |
| 20260509151609 | 90 | 179 | 5.0 | 11.0 | 0.00 | 0.00 | 0.00 | 55 | 1013.6 |
| 20260509150609 | 89 | 198 | 4.0 | 10.0 | 0.00 | 0.00 | 0.00 | 59 | 1013.6 |
| 20260509145608 | 88 | 158 | 4.0 | 10.0 | 0.00 | 0.00 | 0.00 | 65 | 1013.7 |
| 20260509144608 | 87 | 202 | 5.0 | 10.0 | 0.00 | 0.00 | 0.00 | 65 | 1013.8 |
| 20260509143608 | 86 | 202 | 4.0 | 9.0 | 0.00 | 0.00 | 0.00 | 67 | 1013.7 |
| 20260509142608 | 86 | 206 | 4.0 | 8.0 | 0.00 | 0.00 | 0.00 | 67 | 1013.6 |
| 20260509141611 | 85 | 270 | 3.0 | 9.0 | 0.00 | 0.00 | 0.00 | 69 | 1013.7 |
| 20260509140606 | 85 | 190 | 3.0 | 8.0 | 0.00 | 0.00 | 0.00 | 71 | 1013.8 |
| 20260509135606 | 84 | 200 | 1.0 | 3.0 | 0.00 | 0.00 | 0.00 | 72 | 1013.8 |
| 20260509135523 | 83 | 150 | 2.0 | 5.0 | 0.00 | 0.00 | 0.00 | 73 | 1013.9 |
| 20260509133606 | 83 | 5 | 2.0 | 3.0 | 0.00 | 0.00 | 0.00 | 75 | 1014.0 |
| 20260509132607 | 82 | 335 | 1.0 | 3.0 | 0.00 | 0.00 | 0.00 | 77 | 1013.9 |
| 20260509132058 | 82 | 51 | 1.0 | 4.0 | 0.00 | 0.00 | 0.00 | 78 | 1013.9 |
| 20260509130559 | 80 | 172 | 1.0 | 4.0 | 0.00 | 0.00 | 0.00 | 83 | 1013.8 |
| 20260509130032 | 79 | 171 | 1.0 | 4.0 | 0.00 | 0.00 | 0.00 | 83 | 1013.8 |
| 20260509124556 | 78 | 171 | 0.0 | 3.0 | 0.00 | 0.00 | 0.00 | 87 | 1013.8 |
| 20260509123559 | 78 | 140 | 1.0 | 5.0 | 0.00 | 0.00 | 0.00 | 86 | 1013.7 |
| 20260509122553 | 77 | 162 | 1.0 | 3.0 | 0.00 | 0.00 | 0.00 | 89 | 1013.7 |
| 20260509121550 | 77 | 162 | 1.0 | 5.0 | 0.00 | 0.00 | 0.00 | 90 | 1013.6 |
| 20260509120551 | 76 | 163 | 1.0 | 6.0 | 0.00 | 0.00 | 0.00 | 92 | 1013.4 |
| 20260509120042 | 75 | 162 | 2.0 | 6.0 | 0.00 | 0.00 | 0.00 | 94 | 1013.1 |
| 20260509114553 | 74 | 136 | 1.0 | 4.0 | 0.00 | 0.00 | 0.00 | 94 | 1013.0 |
| 20260509113554 | 73 | 231 | 0.0 | 2.0 | 0.00 | 0.00 | 0.00 | 95 | 1013.0 |
| 20260509113031 | 72 | 231 | 0.0 | 1.0 | 0.00 | 0.00 | 0.00 | 95 | 1013.0 |
| 20260509111553 | 71 | 232 | 0.0 | 1.0 | 0.00 | 0.00 | 0.00 | 95 | 1012.9 |
| 20260509110549 | 71 | 269 | 0.0 | 0.0 | 0.00 | 0.00 | 0.00 | 95 | 1012.8 |
| 20260509105550 | 71 | 309 | 0.0 | 0.0 | 0.00 | 0.00 | 0.00 | 94 | 1012.7 |
| 20260509104552 | 71 | 309 | 0.0 | 0.0 | 0.00 | 0.00 | 0.00 | 94 | 1012.7 |
| 20260509103551 | 71 | 309 | 0.0 | 0.0 | 0.00 | 0.00 | 0.00 | 94 | 1012.7 |
| 20260509102549 | 71 | 309 | 0.0 | 0.0 | 0.00 | 0.00 | 0.00 | 94 | 1012.8 |
| 20260509101551 | 71 | 309 | 0.0 | 0.0 | 0.00 | 0.00 | 0.00 | 94 | 1012.7 |
| 20260509101024 | 71 | 309 | 0.0 | 0.0 | 0.00 | 0.00 | 0.00 | 94 | 1012.8 |
| 20260509095550 | 71 | 309 | 0.0 | 0.0 | 0.00 | 0.00 | 0.00 | 93 | 1012.8 |
| 20260509094548 | 72 | 309 | 0.0 | 0.0 | 0.00 | 0.00 | 0.00 | 93 | 1012.8 |
| 20260509093550 | 72 | 309 | 0.0 | 1.0 | 0.00 | 0.00 | 0.00 | 93 | 1012.7 |
| 20260509092546 | 72 | 309 | 0.0 | 0.0 | 0.00 | 0.00 | 0.00 | 92 | 1012.6 |
| 20260509091546 | 73 | 309 | 0.0 | 0.0 | 0.00 | 0.00 | 0.00 | 92 | 1012.6 |
| 20260509090549 | 74 | 309 | 0.0 | 0.0 | 0.00 | 0.00 | 0.00 | 92 | 1012.6 |
| 20260509085541 | 74 | 309 | 2.0 | 4.0 | 0.00 | 0.00 | 0.00 | 92 | 1012.7 |
| 20260509084539 | 74 | 308 | 2.0 | 4.0 | 0.00 | 0.00 | 0.00 | 92 | 1012.6 |
| 20260509083539 | 74 | 302 | 1.0 | 4.0 | 0.00 | 0.00 | 0.00 | 91 | 1012.6 |
| 20260509082542 | 74 | 301 | 1.0 | 3.0 | 0.00 | 0.00 | 0.00 | 90 | 1012.7 |
| 20260509081540 | 75 | 301 | 1.0 | 3.0 | 0.00 | 0.00 | 0.00 | 90 | 1012.8 |